| time (UTC) | temp C | wind direction | speed KPH | gust KPH | rain 1hr cm | rain 24hr cm | rain mn cm | humidity % | barometer mb |
| 20260505000014 | 23 | 209 | 0.0 | 3.2 | 0.00 | 0.15 | 0.15 | 96 | 1008.4 |
| 20260504234511 | 23 | 206 | 0.0 | 0.0 | 0.00 | 0.15 | 0.15 | 96 | 1008.2 |
| 20260504233009 | 22 | 210 | 0.0 | 0.0 | 0.00 | 0.15 | 0.15 | 95 | 1008.1 |
| 20260504231508 | 22 | 359 | 0.0 | 0.0 | 0.00 | 0.15 | 0.15 | 95 | 1007.7 |
| 20260504230007 | 22 | 206 | 0.0 | 0.0 | 0.00 | 0.15 | 0.15 | 95 | 1007.3 |
| 20260504224508 | 22 | 213 | 0.0 | 0.0 | 0.00 | 0.15 | 0.15 | 95 | 1007.1 |
| 20260504223005 | 22 | 359 | 0.0 | 0.0 | 0.00 | 0.15 | 0.15 | 95 | 1006.9 |
| 20260504221504 | 22 | 208 | 0.0 | 0.0 | 0.00 | 0.15 | 0.15 | 95 | 1006.7 |
| 20260504220003 | 22 | 359 | 0.0 | 0.0 | 0.00 | 0.15 | 0.15 | 94 | 1006.7 |
| 20260504214600 | 23 | 209 | 0.0 | 1.6 | 0.00 | 0.15 | 0.15 | 94 | 1006.5 |
| 20260504213123 | 23 | 212 | 0.0 | 0.0 | 0.00 | 0.15 | 0.15 | 94 | 1006.6 |
| 20260504211556 | 23 | 206 | 0.0 | 0.0 | 0.00 | 0.15 | 0.15 | 94 | 1006.6 |
| 20260504210059 | 23 | 206 | 0.0 | 1.6 | 0.00 | 0.15 | 0.15 | 94 | 1006.8 |
| 20260504204604 | 23 | 208 | 0.0 | 1.6 | 0.00 | 0.15 | 0.15 | 94 | 1006.6 |
| 20260504203052 | 23 | 208 | 0.0 | 0.0 | 0.00 | 0.15 | 0.15 | 94 | 1007.0 |
| 20260504201550 | 23 | 206 | 0.0 | 0.0 | 0.00 | 0.15 | 0.15 | 94 | 1007.2 |
| 20260504200053 | 23 | 213 | 0.0 | 3.2 | 0.00 | 0.15 | 0.15 | 94 | 1007.2 |
| 20260504194548 | 23 | 211 | 0.0 | 3.2 | 0.00 | 0.15 | 0.15 | 94 | 1007.2 |
| 20260504193046 | 23 | 207 | 0.0 | 0.0 | 0.03 | 0.15 | 0.15 | 94 | 1007.5 |
| 20260504191545 | 23 | 212 | 0.0 | 3.2 | 0.05 | 0.15 | 0.15 | 94 | 1007.6 |
| 20260504190043 | 23 | 210 | 0.0 | 3.2 | 0.10 | 0.15 | 0.15 | 93 | 1007.6 |
| 20260504184540 | 23 | 206 | 0.0 | 3.2 | 0.13 | 0.15 | 0.15 | 93 | 1007.7 |
| 20260504183039 | 23 | 208 | 0.0 | 1.6 | 0.13 | 0.13 | 0.13 | 92 | 1007.7 |
| 20260504181542 | 24 | 359 | 0.0 | 3.2 | 0.08 | 0.08 | 0.08 | 91 | 1007.7 |
| 20260504180034 | 24 | 210 | 0.0 | 3.2 | 0.05 | 0.05 | 0.05 | 89 | 1007.9 |
| 20260504174530 | 25 | 210 | 0.0 | 3.2 | 0.03 | 0.03 | 0.03 | 87 | 1008.1 |
| 20260504173029 | 25 | 209 | 0.0 | 3.2 | 0.00 | 0.00 | 0.00 | 83 | 1008.1 |
| 20260504171527 | 25 | 209 | 0.0 | 8.0 | 0.00 | 0.00 | 0.00 | 82 | 1008.1 |
| 20260504081556 | 36 | 210 | 4.8 | 11.3 | 0.00 | 0.00 | 0.00 | 47 | 1002.3 |
| 20260504044525 | 33 | 273 | 1.6 | 9.7 | 0.00 | 0.00 | 0.00 | 58 | 1006.5 |
| 20260504043035 | 33 | 254 | 3.2 | 12.9 | 0.00 | 0.00 | 0.00 | 58 | 1006.8 |
| 20260504041521 | 33 | 299 | 3.2 | 11.3 | 0.00 | 0.00 | 0.00 | 62 | 1006.8 |
| 20260504040024 | 33 | 298 | 3.2 | 8.0 | 0.00 | 0.00 | 0.00 | 62 | 1007.0 |
| 20260504034517 | 32 | 262 | 3.2 | 9.7 | 0.00 | 0.00 | 0.00 | 60 | 1007.2 |
| 20260504033014 | 32 | 254 | 3.2 | 8.0 | 0.00 | 0.00 | 0.00 | 65 | 1007.2 |
| 20260504031512 | 31 | 229 | 6.4 | 12.9 | 0.00 | 0.00 | 0.00 | 63 | 1007.4 |
| 20260504030016 | 31 | 319 | 4.8 | 8.0 | 0.00 | 0.00 | 0.00 | 66 | 1007.5 |
| 20260504024508 | 30 | 345 | 0.0 | 6.4 | 0.00 | 0.00 | 0.00 | 66 | 1007.5 |
| 20260504023008 | 30 | 346 | 3.2 | 6.4 | 0.00 | 0.00 | 0.00 | 66 | 1007.8 |
| 20260504020057 | 29 | 354 | 1.6 | 4.8 | 0.00 | 0.00 | 0.00 | 72 | 1007.7 |
| 20260504014543 | 28 | 354 | 0.0 | 3.2 | 0.00 | 0.00 | 0.00 | 77 | 1007.7 |
| 20260504013036 | 27 | 354 | 0.0 | 3.2 | 0.00 | 0.00 | 0.00 | 78 | 1007.7 |
| 20260504011526 | 27 | 4 | 0.0 | 4.8 | 0.00 | 0.00 | 0.00 | 81 | 1007.6 |
| 20260504010022 | 26 | 4 | 0.0 | 0.0 | 0.00 | 0.00 | 0.00 | 79 | 1007.3 |
| 20260504004519 | 26 | 4 | 0.0 | 1.6 | 0.00 | 0.00 | 0.00 | 82 | 1007.2 |
| 20260504003016 | 25 | 4 | 0.0 | 1.6 | 0.00 | 0.00 | 0.00 | 84 | 1007.1 |
| 20260504001513 | 24 | 4 | 0.0 | 0.0 | 0.00 | 0.00 | 0.00 | 87 | 1006.8 |